STARLINK-32257, 62171

Orbit data source: Space-Track

STARLINK-32257, 62171 is a payload satellite owned by SpaceX/Seattle (US) in LEO that was launched on Sat, 30 Nov 2024 UTC via an FALCON 9 launch vehicle from the Air Force Western Test Range (AFWTR). Payload-class satellites include a variety of spacecraft equipped with specific instruments for various scientific and technological missions. These include communications satellites like Starlink; space stations such as the ISS; scientific satellites like the Hubble; Earth observation satellites from companies like Planet Labs, Umbra, and HawkEye 360; GPS; miniature CubeSats for education and research; and military/defense satellites.

Loading next visibility...
Identifier
62171, 2024-225J
Orbit
LEO
Country
Flag of USUS
Related business
Manufacturer
SpaceX/Seattle
Mission
Operational Commercial Communications
Bus & Motor
STARLINK V2M, Unknown motor
Mass
730 kg wet, ~700 kg dry
Launch date (UTC)
2024-11-30 (1 year ago)
Launch vehicle
FALCON 9
Launch site
Air Force Western Test Range (AFWTR)
Object type
Payload
Rocket body
Debris
Shape & HBR
Box + 2 Pan, 17.7 m
Radar Cross Section
33.884 m², Large (>1 m²)

Expand to show TLE details & history
Last TLE update: 13 hours ago

TLE from 13 hours ago
0 STARLINK-32257
1 62171U 24225J   26062.71449842  .00261206  00000-0  20740-1 0  9998
2 62171  70.0005 179.3751 0020395 332.3577  27.6496 14.98856640 68989
Epoch: 2026-03-03T17:08Z
TLE epoch observation values (Epoch: 2026-03-03T17:08:52.663Z)
Latitude
-0.00003°
Longitude
120.66607°
Altitude
560.303 km
Speed
7.588 km/s
True Right ascension
11h 57m 30s
True Declination
0° 00' 00"
Sunlit
Object was in full shadow at epoch
Visualization orbit readout
Latitude
Unknown
Longitude
Unknown
Altitude
Unknown
Speed
Unknown
Apparent Right ascension
Unknown
Apparent Declination
Unknown
Sunlit
N/A
Visualization observer readout
Local Sidereal Time
10:03:35
Azimuth
Unknown
Elevation
Unknown
Doppler factor
Unknown
Orbital elements
Apogee altitude
582.543 km
Perigee altitude
554.208 km
Semi-major axis
6,946.512 km
Eccentricity
0.00204
Inclination
70.0005°
RAAN
179.3751°
Arg. of periapsis
332.3577°
True anomaly
27.7583°
Mean anomaly
27.6496°
Eccentric anomaly
27.70393°
Mean motion
3.74881 °/min
Orbital period
96.03 mins
BSTAR
0.02074
Loading maneuver chart data...
Computing Atmospheric mass density...
Loading historical data...
Loading historical data...
Loading historical data...
Loading historical data...
Loading historical data...
Loading historical data...
Loading historical data...

Documentation

Showing up to 5 results
|